Terug naar catalogus

DELTA 1 DEB

ActiefLEO
NORAD 3123·DEBRIS·🇺🇸 United States

Gelanceerd Nov 10, 1967 vanaf Vandenberg Space Force Base

Loading…

Volgende Passages (komende 24 uur)

TLE

VersSource: Space-Track

Epoch: Sep 14, 2026, 07:51 UTC

1 03123U 67114D   26257.32775973 -.00000037  00000-0  78012-4 0  9996
2 03123 102.4915  35.8270 0028451  96.7482 293.2511 12.48109058679883

Volg DELTA 1 DEB in realtime met AllMySat

Download on the App Store